Printer-friendly version

IAU Minor Planet Center

Minor Planet Center

MPEC 2006-G35 : 2006 GW2

The following Minor Planet Electronic Circular may be linked-to from your own Web pages, but must not otherwise be redistributed electronically.


Read MPEC 2006-G34 Read MPEC 2006-G36


M.P.E.C. 2006-G35                                Issued 2006 Apr. 10, 15:00 UT

     The Minor Planet Electronic Circulars contain information on unusual
         minor planets and routine data on comets.  They are published
   on behalf of Commission 20 of the International Astronomical Union by the
          Minor Planet Center, Smithsonian Astrophysical Observatory,
                          Cambridge, MA 02138, U.S.A.

                  Supported in part by the Brinson Foundation
                  Supported in part by the TABASGO Foundation
             Prepared using the Tamkin Foundation Computer Network

                              MPC@CFA.HARVARD.EDU
          URL http://cfa-www.harvard.edu/iau/mpc.html  ISSN 1523-6714

                                   2006 GW2

Observations:
     K06G02W* C2006 04 08.32866 15 27 04.20 +20 39 10.6          19.1 R EG035699
     K06G02W  C2006 04 08.35422 15 27 05.92 +20 39 57.1                 EG035699
     K06G02W  C2006 04 08.37977 15 27 07.60 +20 40 42.6                 EG035699
     K06G02W  C2006 04 08.40534 15 27 09.18 +20 41 28.3                 EG035699
     K06G02W  C2006 04 08.90765 15 27 47.81 +20 56 10.4          19.8 V EG035A44
     K06G02W  C2006 04 08.92622 15 27 49.05 +20 56 43.6          19.7 V EG035A44
     K06G02W  C2006 04 08.93766 15 27 49.78 +20 57 04.1          19.7 V EG035A44
     K06G02W  C2006 04 09.07457 15 27 59.16 +21 01 06.7                 EG035J95
     K06G02W  C2006 04 09.07981 15 27 59.51 +21 01 16.0                 EG035J95
     K06G02W  C2006 04 09.08554 15 27 59.89 +21 01 26.1          19.3 R EG035J95
     K06G02W  C2006 04 09.34251 15 28 19.29 +21 09 10.3          19.3 R EG035854
     K06G02W  C2006 04 09.34826 15 28 19.74 +21 09 19.0          19.3 R EG035854
     K06G02W  C2006 04 09.35402 15 28 20.06 +21 09 30.9          19.4 R EG035854
     K06G02W  C2006 04 09.35546 15 28 19.58 +21 09 29.6          19.4 R EG035649
     K06G02W  C2006 04 09.35901 15 28 19.81 +21 09 35.7          19.2 R EG035649
     K06G02W  C2006 04 09.36257 15 28 20.05 +21 09 42.1          19.4 R EG035649
     K06G02W  C2006 04 09.36612 15 28 20.27 +21 09 48.5          19.4 R EG035649
     K06G02W  C2006 04 09.37580 15 28 21.38 +21 10 07.4                 EG035682
     K06G02W  C2006 04 09.39039 15 28 22.31 +21 10 32.9                 EG035682
     K06G02W 5C2006 04 09.39931 15 28 23.02 +21 10 49.3          19.4 R EG035673
     K06G02W 5C2006 04 09.40278 15 28 23.25 +21 10 55.0                 EG035673
     K06G02W  C2006 04 09.40497 15 28 23.22 +21 10 59.2                 EG035682
     K06G02W 5C2006 04 09.41111 15 28 23.70 +21 11 10.1                 EG035673
     K06G02W 5C2006 04 09.41725 15 28 24.12 +21 11 21.2                 EG035673
     K06G02W  C2006 04 09.41839 15 28 23.99 +21 11 24.6          19.8   EG035701
     K06G02W  C2006 04 09.43287 15 28 24.86 +21 11 49.4          19.6   EG035701
     K06G02W  C2006 04 09.43999 15 28 25.32 +21 12 01.9          19.3 V EG035G96
     K06G02W  C2006 04 09.44223 15 28 25.46 +21 12 05.8          19.3 V EG035G96
     K06G02W  C2006 04 09.44448 15 28 25.60 +21 12 09.6          19.4 V EG035G96
     K06G02W  C2006 04 09.44617 15 28 25.68 +21 12 13.1          19.7   EG035701
     K06G02W  C2006 04 09.44663 15 28 25.71 +21 12 13.6          19.3 V EG035G96
     K06G02W  C2006 04 09.46060 15 28 26.59 +21 12 38.5          19.8   EG035701
     K06G02W  C2006 04 10.24773 15 29 24.98 +21 35 38.2          19.2 R EG035H36
     K06G02W  C2006 04 10.26336 15 29 25.84 +21 36 05.9                 EG035H36
     K06G02W  C2006 04 10.27676 15 29 26.79 +21 36 31.8                 EG035H36
     K06G02W  C2006 04 10.37367 15 29 32.45 +21 39 21.7          19.8 R EG035850
     K06G02W  C2006 04 10.38122 15 29 32.89 +21 39 37.4          20.0 R EG035850
     K06G02W  C2006 04 10.38877 15 29 33.33 +21 39 51.9          20.3 R EG035850
     K06G02W  C2006 04 10.39632 15 29 33.78 +21 40 04.1          20.5 R EG035850
     K06G02W  C2006 04 10.40690 15 29 34.45 +21 40 19.4          20.3 R EG035850

Observer details:
649 Powell Observatory, Louisburg.  Observer R. Trentman.  0.75-m Newtonian
    reflector + CCD.
673 Table Mountain Observatory, Wrightwood.  Observer J. Young.  0.6-m f/16
    Cassegrain + CCD.
682 Kanab.  Observer E. Sheridan.  0.36-m f/5.5 Schmidt-Cassegrain + CCD.
699 Lowell Observatory-LONEOS.  Observer M. E. Van Ness.  0.59-m LONEOS
    Schmidt + CCD.
701 Junk Bond Observatory, Sierra Vista.  Observer D. Healy.  0.81-m f/4.4
    Ritchey-Chretien + CCD.
850 Cordell-Lorenz Observatory, Sewanee.  Observers D. T. Durig, B. T. Scott.
    0.30-m f/2.5 Schmidt-Cassegrain + 765x510 CCD.
854 Sabino Canyon Observatory, Tucson.  Observer J. E. McGaha.  0.30-m f/10
    Schmidt-Cassegrain + CCD.
A44 Altschwendt.  Observer W. Ries.  0.30-m f/6 reflector + CCD.
G96 Mt. Lemmon Survey.  Observer R. E. Hill.  Measurers E. C. Beshore,
    E. J. Christensen, G. J. Garradd, A. R. Gibbs, A. D. Grauer, R. E. Hill,
    R. A. Kowalski, S. M. Larson, R. H. McNaught.  1.5-m reflector + CCD.
H36 Sandlot Observatory, Scranton.  Observer G. Hug.  0.30-m
    Schmidt-Cassegrain + CCD.
J95 Great Shefford.  Observer P. Birtwhistle.  0.40-m f/6.0 Schmidt-Cassegrain
    + CCD.

Orbital elements:
2006 GW2                                                 Earth MOID = 0.2056 AU
Epoch 2006 Mar. 6.0 TT = JDT 2453800.5                  MPC
M 307.96622              (2000.0)            P               Q
n   0.57359160     Peri.  114.10421     -0.33230037     +0.93655303
a   1.4346111      Node   135.98673     -0.91313035     -0.28984232
e   0.1849063      Incl.    9.23903     -0.23615553     -0.19712900
P   1.72           H   20.5           G   0.15           U   8
Residuals in seconds of arc
060408 699  1.0-  0.4+    060409 649  0.2+  0.4-    060409 G96  0.4+  0.3-
060408 699  0.3-  0.8+    060409 649  0.4+  0.3-    060409 701  0.4+  0.2-
060408 699  0.2+  0.6+    060409 649  0.4+  0.1-    060409 G96  0.1+  0.0
060408 699  0.7-  0.7+    060409 682  0.2+  1.1+    060409 701  0.6+  0.0
060408 A44  0.6+  0.6+    060409 682  0.4+  0.7+    060410 H36  0.5-  0.4-
060408 A44  0.2+  0.2+    060409 673  0.3+  0.0     060410 H36 (2.2-  0.7-)
060408 A44  0.5-  0.1+    060409 673  0.5+  0.5-    060410 H36  0.6-  1.3+
060409 J95  0.1+  0.2-    060409 682  0.5+  1.2+    060410 850  0.4+  1.4-
060409 J95  0.2+  0.2-    060409 673  0.4-  0.1-    060410 850  0.2+  1.2+
060409 J95  0.3+  0.3-    060409 673  0.1+  0.1+    060410 850 (0.0   2.6+)
060409 854  0.2+  0.9+    060409 701  0.7+  0.1+    060410 850  0.1-  1.7+
060409 854  1.5+  0.7-    060409 701  0.4+  0.6-    060410 850  0.3+  1.3-
060409 854  0.9+  0.9+    060409 G96  0.3+  0.1-
060409 649  0.1+  0.2-    060409 G96  0.4+  0.1-

Ephemeris:
2006 GW2                 a,e,i = 1.43, 0.18, 9                   q = 1.1693
Date    TT    R. A. (2000) Decl.     Delta      r     Elong.  Phase     V
2006 04 05    15 22.70   +18 59.9    0.304    1.237   136.0    34.2    19.8
2006 04 15    15 34.65   +23 51.4    0.280    1.218   135.1    35.6    19.6
2006 04 25    15 43.00   +28 02.5    0.263    1.201   133.1    37.7    19.5
2006 05 05    15 47.86   +30 58.8    0.251    1.188   130.7    40.1    19.5
2006 05 15    15 50.29   +32 14.9    0.243    1.178   128.7    42.1    19.4
2006 05 25    15 51.64   +31 37.2    0.237    1.172   127.4    43.4    19.4
2006 06 04    15 53.62   +28 57.4    0.232    1.169   127.1    43.8    19.4
2006 06 14    15 57.93   +24 19.2    0.231    1.171   127.6    43.4    19.3
2006 06 24    16 05.41   +17 58.4    0.234    1.177   128.6    42.4    19.3
2006 07 04    16 16.66   +10 23.2    0.243    1.186   129.6    41.4    19.4
2006 07 14    16 31.78   +02 18.9    0.259    1.199   129.8    40.7    19.6
2006 07 24    16 50.37   -05 27.1    0.285    1.215   128.9    40.6    19.8
2006 08 03    17 12.12   -12 17.9    0.321    1.234   126.9    41.1    20.1
2006 08 13    17 36.45   -17 52.8    0.366    1.256   124.2    41.9    20.4
2006 08 23    18 02.64   -22 07.5    0.420    1.279   120.9    42.7    20.8
2006 09 02    18 30.17   -25 07.0    0.482    1.304   117.5    43.4    21.2
2006 09 12    18 58.39   -27 00.3    0.552    1.330   113.9    43.8    21.5
2006 09 22    19 26.75   -27 57.7    0.628    1.356   110.3    44.0    21.8

Timothy B. Spahr             (C) Copyright 2006 MPC           M.P.E.C. 2006-G35

Read MPEC 2006-G34 Read MPEC 2006-G36


Our Web policy. Index to the CBAT/MPC/ICQ pages.


Valid HTML 4.01!